Weather History for Ajaccio, France

Change the Weather History Date:

Thursday, May 15, 2014

  Actual Average Record
Temperature  
Mean Temperature 59 °F -  
Max Temperature 73 °F 74 °F 80 °F (1997)
Min Temperature 45 °F 55 °F 45 °F (2014)
Degree Days  
Heating Degree Days 6    
Growing Degree Days 9 (Base 50)    
Moisture  
Dew Point 45 °F    
Average Humidity 59    
Maximum Humidity 94    
Minimum Humidity 16    
Precipitation  
Precipitation 0.04 in 0.04 in - ()
Sea Level Pressure  
Sea Level Pressure 30.05 in    
Wind  
Wind Speed 8 mph ()    
Max Wind Speed 21 mph    
Max Gust Speed 26 mph    
Visibility 6.7 miles    
Events Rain    
Averages and records for this station are not official NWS values.
T = Trace of Precipitation, MM = Missing Value Source: Averaged Metar Reports

Daily Weather History Graph

Daily Weather History Graph

Search for Another Location

Airport:

Trip Planner

Search our weather history database for the weather conditions in past years. The results will help you decide how hot, cold, wet, or windy it might be!

Date:

Astronomy

May. 15, 2014 Rise Set
Actual Time 6:04 AM CEST 8:38 PM CEST
Civil Twilight 5:32 AM CEST 9:10 PM CEST
Nautical Twilight 4:53 AM CEST 9:49 PM CEST
Astronomical Twilight 4:08 AM CEST 10:34 PM CEST
Moon 9:29 PM CEST (5/15) 6:38 AM CEST (5/15)
Length of Visible Light 15h 37m
Length of Day
14h 33m
Waxing Gibbous, 99% of the Moon is Illuminated
May 15
Waxing Gibbous
May 21
Last Quarter
May 28
New
Jun 5
First Quarter
Jun 13
Full

Hourly Weather History & Observations

Time (CEST) Temp. Windchill Dew Point Humidity Pressure Visibility Wind Dir Wind Speed Gust Speed Precip Events Conditions
12:00 AM 51 °F - 47 °F 83% 30.13 in 25 mi ENE 8.1 mph - -   Clear
12:00 AM 50.0 °F - 48.2 °F 94% 30.12 in - ENE 8.1 mph - N/A   Clear
12:30 AM 51.8 °F - 48.2 °F 88% 30.12 in - ENE 8.1 mph - N/A   Clear
1:00 AM 51 °F - 46 °F 78% 30.12 in 25 mi NE 5.8 mph - -   Scattered Clouds
1:00 AM 51.8 °F - 46.4 °F 82% 30.12 in - NE 5.8 mph - N/A   Clear
1:30 AM 50.0 °F - 46.4 °F 87% 30.09 in 6.2 mi NE 6.9 mph - N/A   Unknown
2:00 AM 50 °F - 46 °F 81% 30.10 in 37 mi NE 5.8 mph - -   Clear
2:00 AM 50.0 °F - 46.4 °F 87% 30.09 in 6.2 mi NE 5.8 mph - N/A   Unknown
2:30 AM 50.0 °F - 44.6 °F 82% 30.06 in 6.2 mi NE 6.9 mph - N/A   Unknown
3:00 AM 49 °F - 45 °F 83% 30.09 in 37 mi NE 6.9 mph - -   Clear
3:00 AM 50.0 °F - 44.6 °F 82% 30.06 in 6.2 mi NE 6.9 mph - N/A   Unknown
3:30 AM 48.2 °F - 44.6 °F 87% 30.06 in 6.2 mi NE 5.8 mph - N/A   Unknown
4:00 AM 47 °F - 44 °F 85% 30.09 in 37 mi NE 5.8 mph - -   Clear
4:00 AM 48.2 °F - 44.6 °F 87% 30.06 in 6.2 mi NE 5.8 mph - N/A   Unknown
4:30 AM 46.4 °F 42.9 °F 44.6 °F 93% 30.06 in 6.2 mi ENE 6.9 mph - N/A   Unknown
5:00 AM 46 °F - 42 °F 83% 30.09 in 37 mi NE 6.9 mph - -   Clear
5:00 AM 46.4 °F 42.9 °F 42.8 °F 87% 30.06 in 6.2 mi NE 6.9 mph - N/A   Unknown
5:30 AM 46.4 °F 42.9 °F 41.0 °F 81% 30.06 in 6.2 mi NE 6.9 mph - N/A   Unknown
6:00 AM 46 °F - 42 °F 79% 30.07 in 37 mi NE 9.2 mph - -   Clear
6:00 AM 46.4 °F 41.9 °F 41.0 °F 81% 30.06 in 6.2 mi NE 9.2 mph - N/A   Unknown
6:30 AM 46.4 °F 42.4 °F 41.0 °F 81% 30.06 in 6.2 mi NE 8.1 mph - N/A   Unknown
7:00 AM 48 °F - 42 °F 71% 30.07 in 37 mi NE 8.1 mph - -   Clear
7:00 AM 48.2 °F - 41.0 °F 76% 30.06 in 6.2 mi NE 8.1 mph - N/A   Unknown
7:30 AM 51.8 °F - 42.8 °F 71% 30.04 in 6.2 mi NE 5.8 mph - N/A   Unknown
8:00 AM 54 °F - 44 °F 59% 30.06 in 37 mi NE 5.8 mph - -   Clear
8:00 AM 53.6 °F - 44.6 °F 72% 30.04 in 6.2 mi NE 5.8 mph - N/A   Unknown
8:30 AM 57.2 °F - 44.6 °F 63% 30.06 in 6.2 mi NE 5.8 mph - N/A   Unknown
9:00 AM 61 °F - 45 °F 45% 30.06 in 37 mi ENE 4.6 mph - -   Clear
9:00 AM 60.8 °F - 44.6 °F 55% 30.04 in 6.2 mi ENE 4.6 mph - N/A   Unknown
9:30 AM 66.2 °F - 46.4 °F 49% 30.04 in 6.2 mi Variable 1.2 mph - N/A   Unknown
10:00 AM 65 °F - 47 °F 40% 30.05 in 37 mi SSW 4.6 mph - -   Clear
10:00 AM 64.4 °F - 46.4 °F 52% 30.04 in 6.2 mi SSW 4.6 mph - N/A   Unknown
10:30 AM 66.2 °F - 46.4 °F 49% 30.04 in 6.2 mi SSW 4.6 mph - N/A   Unknown
11:00 AM 67 °F - 51 °F 46% 30.04 in 12 mi SW 5.8 mph - -   Clear
11:00 AM 68.0 °F - 51.8 °F 56% 30.04 in 6.2 mi SW 5.8 mph - N/A   Unknown
11:30 AM 68.0 °F - 51.8 °F 56% 30.01 in 6.2 mi WSW 10.4 mph - N/A   Unknown
12:00 PM 68 °F - 51 °F 45% 30.04 in 28 mi SW 16.1 mph - -   Clear
12:00 PM 68.0 °F - 51.8 °F 56% 30.01 in 6.2 mi SW 16.1 mph - N/A   Unknown
12:30 PM 69.8 °F - 50.0 °F 49% 30.04 in 6.2 mi SW 17.3 mph - N/A   Unknown
1:00 PM 69 °F - 54 °F 49% 30.03 in 22 mi SSW 19.6 mph - -   Clear
1:00 PM 69.8 °F - 53.6 °F 56% 30.01 in 6.2 mi SSW 19.6 mph - N/A   Unknown
1:30 PM 69.8 °F - 51.8 °F 53% 30.01 in 6.2 mi SSW 20.7 mph - N/A   Unknown
2:00 PM 74 °F - 38 °F 16% 30.02 in 15 mi SW 6.9 mph - -   Clear
2:00 PM 73.4 °F - 37.4 °F 27% 30.01 in 6.2 mi Variable 6.9 mph - N/A   Unknown
2:30 PM 73.4 °F - 41.0 °F 31% 30.01 in 6.2 mi Variable 6.9 mph - N/A   Unknown
3:00 PM 70 °F - 38 °F 20% 30.02 in 7 mi WNW 20.7 mph - -   Clear
3:00 PM 69.8 °F - 39.2 °F 33% 30.01 in 6.2 mi WNW 20.7 mph - N/A   Unknown
3:30 PM 71.6 °F - 41.0 °F 33% 30.01 in 6.2 mi South 12.7 mph 26.5 mph N/A   Unknown
4:00 PM 72 °F - 40 °F 21% 30.02 in 17 mi South 12.7 mph - -   Clear
4:00 PM 71.6 °F - 41.0 °F 33% 30.01 in 6.2 mi South 12.7 mph - N/A   Unknown
4:30 PM 69.8 °F - 46.4 °F 43% 30.01 in 6.2 mi SSW 20.7 mph - N/A   Unknown
5:00 PM 65 °F - 47 °F 41% 30.04 in 25 mi SSW 16.1 mph - -   Clear
5:00 PM 66.2 °F - 46.4 °F 49% 30.04 in 6.2 mi SSW 16.1 mph - N/A   Overcast
5:30 PM 59.0 °F - 42.8 °F 55% 30.04 in 3.1 mi South 13.8 mph 25.3 mph N/A Rain Light Rain
6:00 PM 62 °F - 48 °F 50% 30.04 in 37 mi East 10.4 mph - -   Clear
6:00 PM 62.6 °F - 48.2 °F 59% 30.04 in 6.2 mi East 10.4 mph - N/A   Overcast
6:30 PM 64.4 °F - 42.8 °F 45% 30.04 in 6.2 mi East 5.8 mph - N/A   Unknown
7:00 PM 66 °F - 41 °F 29% 30.04 in 37 mi East 2.3 mph - -   Clear
7:00 PM 66.2 °F - 41.0 °F 40% 30.04 in 6.2 mi Variable 2.3 mph - N/A   Unknown
7:30 PM 66.2 °F - 41.0 °F 40% 30.04 in 6.2 mi Variable 2.3 mph - N/A   Unknown
8:00 PM 64 °F - 43 °F 34% 30.04 in 34 mi WNW 5.8 mph - -   Clear
8:00 PM 64.4 °F - 42.8 °F 45% 30.04 in 6.2 mi WNW 5.8 mph - N/A   Unknown
8:30 PM 60.8 °F - 41.0 °F 48% 30.04 in 6.2 mi Variable 3.5 mph - N/A   Unknown
9:00 PM 59 °F - 42 °F 43% 30.06 in 37 mi NE 4.6 mph - -   Clear
9:00 PM 59.0 °F - 42.8 °F 55% 30.04 in 6.2 mi NE 4.6 mph - N/A   Unknown
9:30 PM 55.4 °F - 42.8 °F 63% 30.06 in 6.2 mi NE 4.6 mph - N/A   Unknown
10:00 PM 55 °F - 42 °F 50% 30.08 in 37 mi ENE 6.9 mph - -   Clear
10:00 PM 55.4 °F - 41.0 °F 58% 30.06 in 6.2 mi ENE 6.9 mph - N/A   Unknown
10:30 PM 53.6 °F - 42.8 °F 67% 30.06 in 6.2 mi NE 6.9 mph - N/A   Unknown
11:00 PM 52 °F - 42 °F 61% 30.09 in 37 mi ENE 8.1 mph - -   Clear
11:00 PM 51.8 °F - 42.8 °F 71% 30.06 in 6.2 mi ENE 8.1 mph - N/A   Unknown
11:30 PM 51.8 °F - 42.8 °F 71% 30.06 in 6.2 mi NE 6.9 mph - N/A   Unknown